Location: Ocean City
(38.3360°N, 75.0850°W)
Time: 14:16:29
(UTC-05:00)

Explorer 11/Cluster Stage 4 - Pass Details

Date: 19 November 2019
Orbit: 467 x 1259 km, 28.8° (Epoch: 07 December)

Event Time Altitude Azimuth Distance (km) Brightness Sun altitude
Rises 21:42:39 0° 254° (WSW) 3,416 - -57.4°
Reaches altitude 10° 21:45:11 10° 246° (WSW) 2,602 - -57.9°
Maximum altitude 21:51:02 37° 181° (S) 1,558 - -58.9°
Drops below altitude 10° 21:57:56 10° 117° (ESE) 3,081 - -60.1°
Sets 22:01:11 0° 110° (ESE) 4,119 - -60.6°
